[[{"header":{"parameterUnit":"m.s-1","parameterCategory":1,"la1":30.2991,"la2":30.254,"lo1":-89.0895,"lo2":-89.0444,"dy":0.0017,"dx":0.0017,"nx":28,"ny":28,"refTime":"2025-09-14T21:00:00:Z","depth":0,"parameterNumber":2,"parameterNumberName":"U-component_of_WINDS"},"data":[0,0,0,0,0,0,0,0,0,0,0,0,0,0,0,0,0,0,0,0,0,0,0,0,0,0,0,0,0,0,0,0,0,0,0,0,0,0,0,0,0,0,0,0,0,0,0,0,0,0,0,0,0,0,0,0,0,0,-3.2222,-3.2217,0,-3.1796,-3.1791,-3.1786,-3.1553,-3.1552,-3.1552,-3.1551,-3.1078,-3.1066,-3.1054,0,0,0,0,0,0,0,0,0,0,0,0,0,-3.2802,-3.2793,-3.2222,-3.2217,-3.2212,-3.1796,-3.179,-3.1784,-3.1553,-3.1552,-3.1552,-3.1551,-3.1082,-3.1068,-3.1053,0,0,0,0,0,0,0,0,0,0,0,0,0,-3.248,-3.279,-3.2223,-3.2047,-3.2027,-3.1798,-3.179,-3.1783,-3.1553,-3.1552,-3.1551,-3.1551,-3.1087,-3.1069,-3.1051,-3.0953,0,0,-3.0996,-3.0988,0,0,0,0,0,0,0,0,-3.2498,-3.2458,-3.2078,-3.2059,-3.2036,-3.1728,-3.1821,-3.1503,-3.1553,-3.1732,-3.1551,-3.155,-3.1292,-3.1257,-3.1178,-3.0931,-3.0911,-3.0994,-3.0983,-3.0975,-3.097,0,0,0,0,0,0,0,-3.2521,-3.2475,-3.2052,-3.2073,-3.2047,-3.1978,-3.1931,-3.176,-3.152,-3.1716,-3.1698,-3.1653,-3.128,-3.1196,-3.1165,-3.0904,-3.0994,-3.0978,-3.0967,-3.096,-3.0551,-3.0551,0,0,0,0,0,0,-3.2576,-3.2496,-3.2066,-3.2039,-3.2271,-3.1968,-3.1916,-3.1826,-3.1522,-3.1475,-3.1654,-3.1644,-3.1227,-3.1186,-3.1147,-3.101,-3.0975,-3.0958,-3.0948,-3.0551,-3.0551,-3.0551,0,0,0,0,0,0,-3.259,-3.254,-3.2083,-3.2263,-3.2199,-3.1959,-3.186,-3.1818,-3.1734,-3.1475,-3.1428,-3.1614,-3.1225,-3.1173,-3.1005,-3.0991,-3.095,-3.0933,-3.0551,-3.0551,-3.0551,-3.0738,0,0,0,0,0,0,-3.2607,-3.2547,-3.2515,-3.2264,-3.2191,-3.1959,-3.186,-3.1811,-3.1708,-3.169,-3.1425,-3.138,-3.122,-3.1034,-3.0987,-3.0965,-3.0919,-3.0551,-3.0551,-3.0551,-3.0732,-3.0745,-3.0756,0,0,0,0,0,-3.2629,-3.2577,-3.2515,-3.2464,-3.2148,-3.1959,-3.1915,-3.1744,-3.1708,-3.1668,-3.1502,-3.1388,-3.1002,-3.1019,-3.0964,-3.0936,-3.0551,-3.0551,-3.0551,-3.0727,-3.0742,-3.0755,0,0,0,0,0,0,-3.2818,-3.2541,-3.2468,-3.2336,-3.2175,-3.1921,-3.1865,-3.1766,-3.1601,-3.159,-3.1372,-3.1314,-3.1166,-3.1033,-3.1058,-3.0823,-3.0763,-3.0753,-3.0916,-3.0928,-3.094,-3.0972,-3.0904,0,0,0,0,0,-3.2848,-3.2729,-3.2487,-3.2393,-3.2317,-3.2107,-3.2017,-3.1901,-3.1719,-3.1645,-3.1466,-3.1285,-3.1121,-3.1017,-3.0853,-3.0713,-3.0648,-3.0666,-3.0679,-3.0689,-3.0681,-3.0592,-3.0597,-3.0552,-3.0552,-3.0552,0,0,-3.2901,-3.2735,-3.267,-3.2427,-3.2288,-3.2159,-3.205,-3.1917,-3.1816,-3.162,-3.1455,-3.1318,-3.1099,-3.0946,-3.0868,-3.083,-3.068,-3.069,-3.0701,-3.0685,-3.0593,-3.0598,-3.0602,-3.0552,-3.0552,-3.0552,0,0,-3.2933,-3.2799,-3.2705,-3.2571,-3.2367,-3.2228,-3.2206,-3.1967,-3.1872,-3.1706,-3.1556,-3.1426,-3.1152,-3.1002,-3.089,-3.087,-3.0757,-3.0821,-3.088,-3.0797,-3.0801,-3.0802,-3.0791,-3.079,-3.0815,-3.0815,-3.0815,0,-3.3021,-3.2833,-3.2666,-3.2546,-3.244,-3.2271,-3.2169,-3.2042,-3.1789,-3.1715,-3.1681,-3.1334,-3.1174,-3.0982,-3.0979,-3.0895,-3.0855,-3.0848,-3.0816,-3.0816,-3.0815,-3.0801,-3.0798,-3.0824,-3.0823,-3.0822,-3.0821,0,-3.295,-3.2821,-3.2768,-3.2544,-3.2432,-3.232,-3.2127,-3.2032,-3.1925,-3.1787,-3.1615,-3.142,-3.1213,-3.1159,-3.1048,-3.0949,-3.0932,-3.086,-3.0794,-3.0832,-3.0814,-3.0808,-3.0837,-3.0834,-3.0831,-3.0829,0,0,-3.3083,-3.2775,-3.2757,-3.2653,-3.2417,-3.2307,-3.2185,-3.1996,-3.1916,-3.1747,-3.1633,-3.1408,-3.1341,-3.1214,-3.1084,-3.1012,-3.1004,-3.0946,-3.0938,-3.0961,-3.0877,-3.0931,-3.0929,-3.0931,-3.0929,-3.0928,-3.0894,0,-3.3078,-3.2866,-3.2713,-3.2553,-3.2428,-3.2267,-3.2159,-3.1997,-3.1865,-3.173,-3.1577,-3.1421,-3.1347,-3.1269,-3.1191,-3.1023,-3.0983,-3.1023,-3.0811,-3.0806,-3.0869,-3.092,-3.0976,-3.0954,-3.0887,-3.0886,-3.0885,0,-3.3043,-3.2894,-3.2727,-3.2506,-3.2447,-3.2355,-3.2168,-3.2046,-3.1855,-3.1762,-3.1626,-3.1496,-3.1348,-3.1302,-3.1091,-3.1122,-3.1025,-3.093,-3.0924,-3.0893,-3.0845,-3.0886,-3.0943,-3.0939,-3.0873,-3.0874,-3.0875,0,-3.3154,-3.2909,-3.2778,-3.2693,-3.2433,-3.2371,-3.2257,-3.2068,-3.1963,-3.1796,-3.1725,-3.1539,-3.1435,-3.1289,-3.1108,-3.1092,-3.0914,-3.0852,-3.0825,-3.0829,-3.079,-3.0794,-3.0828,-3.0737,-3.0737,-3.0737,-3.0737,0,-3.3161,-3.3063,-3.2825,-3.2743,-3.2626,-3.2448,-3.2333,-3.2203,-3.2037,-3.1919,-3.1764,-3.1654,-3.1425,-3.1284,-3.114,-3.0985,-3.0939,-3.0853,-3.0815,-3.0865,-3.0876,-3.0795,-3.079,-3.0736,-3.0736,-3.0737,-3.0737,0,-3.3262,-3.31,-3.2945,-3.2716,-3.2655,-3.2579,-3.2375,-3.2284,-3.2147,-3.1999,-3.1953,-3.1732,-3.1559,-3.1367,-3.1124,-3.1028,-3.088,-3.0827,-3.0949,-3.0926,-3.0908,-3.0911,-3.0888,-3.0873,-3.0799,-3.08,-3.0801,0,-3.3276,-3.3199,-3.2965,-3.2882,-3.2777,-3.2642,-3.2539,-3.2358,-3.2254,-3.2034,-3.1967,-3.1786,-3.163,-3.1358,-3.1168,-3.0981,-3.092,-3.0925,-3.0889,-3.0942,-3.0914,-3.092,-3.0908,-3.0933,-3.0935,-3.0937,-3.0938,0,-3.3316,-3.3241,-3.3105,-3.2941,-3.2825,-3.2683,-3.2534,-3.2471,-3.2258,-3.2147,-3.1976,-3.1857,-3.1617,-3.1434,-3.1226,-3.1094,-3.0977,-3.0953,-3.0935,-3.0982,-3.1054,-3.1011,-3.0972,-3.0951,-3.095,-3.0949,-3.0948,-3.0948,-3.337,-3.3294,-3.312,-3.2972,-3.2844,-3.2709,-3.2614,-3.2469,-3.2327,-3.2126,-3.2025,-3.1853,-3.1659,-3.137,-3.1243,-3.1097,-3.1059,-3.1035,-3.1028,-3.1024,-3.1036,-3.1084,-3.1058,-3.1057,-3.1057,-3.1056,-3.1055,0,-3.3399,-3.3281,-3.3148,-3.2951,-3.2833,-3.275,-3.258,-3.2483,-3.2338,-3.2174,-3.2029,-3.1828,-3.1652,-3.1452,-3.126,-3.1182,-3.1123,-3.1137,-3.1137,-3.1108,-3.1082,-3.1115,-3.1188,-3.1188,-3.1188,-3.1188,-3.1188,-3.1188,-3.34,-3.3268,-3.3172,-3.2971,-3.2849,-3.269,-3.26,-3.2472,-3.2341,-3.213,-3.1988,-3.1864,-3.1681,-3.1476,-3.1307,-3.1252,-3.1185,-3.1215,-3.1143,-3.1121,-3.111,-3.1099,-3.1129,-3.1203,-3.1203,-3.1179,-3.1179,-3.1179]},{"header":{"parameterUnit":"m.s-1","parameterCategory":1,"la1":30.2991,"la2":30.254,"lo1":-89.0895,"lo2":-89.0444,"dy":0.0017,"dx":0.0017,"nx":28,"ny":28,"refTime":"2025-09-14T21:00:00:Z","depth":0,"parameterNumber":3,"parameterNumberName":"V-component_of_WINDS"},"data":[0,0,0,0,0,0,0,0,0,0,0,0,0,0,0,0,0,0,0,0,0,0,0,0,0,0,0,0,0,0,0,0,0,0,0,0,0,0,0,0,0,0,0,0,0,0,0,0,0,0,0,0,0,0,0,0,0,0,1.1383,1.138,0,1.1131,1.1129,1.1126,1.1091,1.1093,1.1095,1.1097,1.0833,1.0824,1.0815,0,0,0,0,0,0,0,0,0,0,0,0,0,1.1824,1.1816,1.1383,1.138,1.1377,1.1132,1.1128,1.1125,1.109,1.1093,1.1096,1.1099,1.0836,1.0825,1.0814,0,0,0,0,0,0,0,0,0,0,0,0,0,1.1608,1.1813,1.1384,1.133,1.1323,1.1133,1.1128,1.1124,1.109,1.1093,1.1097,1.11,1.0839,1.0826,1.0812,1.0656,0,0,1.077,1.0764,0,0,0,0,0,0,0,0,1.162,1.1592,1.1341,1.1333,1.1325,1.1146,1.1187,1.0967,1.1089,1.1178,1.1098,1.1102,1.0934,1.0912,1.0857,1.0644,1.0632,1.0769,1.076,1.0754,1.075,0,0,0,0,0,0,0,1.1635,1.1603,1.1283,1.1337,1.1327,1.1315,1.1289,1.1145,1.1039,1.117,1.1167,1.1138,1.093,1.0871,1.0851,1.0628,1.0769,1.0757,1.0748,1.0743,1.0271,1.0267,0,0,0,0,0,0,1.1661,1.1615,1.1291,1.1276,1.1485,1.1305,1.1275,1.12,1.104,1.102,1.1136,1.1138,1.0893,1.0867,1.0841,1.0647,1.0754,1.0741,1.0733,1.0275,1.027,1.0266,0,0,0,0,0,0,1.1671,1.1633,1.1301,1.1444,1.1401,1.1293,1.1209,1.1193,1.1134,1.1014,1.0994,1.1095,1.0894,1.0861,1.0702,1.0637,1.0735,1.0723,1.028,1.0274,1.0268,1.0258,0,0,0,0,0,0,1.1684,1.1636,1.1578,1.1444,1.1394,1.1169,1.1205,1.1185,1.1111,1.1111,1.0971,1.0951,1.0895,1.0723,1.0689,1.062,1.0712,1.0286,1.0277,1.027,1.0263,1.0252,1.0242,0,0,0,0,0,1.17,1.1584,1.1576,1.1537,1.132,1.1166,1.1137,1.1077,1.1106,1.1045,1.0967,1.0955,1.065,1.0707,1.0668,1.0594,1.0289,1.028,1.0271,1.0268,1.0254,1.0242,0,0,0,0,0,0,1.1713,1.1566,1.1555,1.1393,1.1292,1.116,1.1082,1.1064,1.0951,1.0956,1.0883,1.0852,1.0696,1.0629,1.0696,1.0433,1.0472,1.0454,1.0483,1.0469,1.0459,1.0478,1.07,0,0,0,0,0,1.1697,1.1587,1.1464,1.1333,1.1283,1.1191,1.1122,1.1084,1.0976,1.0932,1.0843,1.0737,1.0616,1.0539,1.0421,1.0253,1.0221,1.0182,1.0172,1.0163,1.0149,1.0053,1.0035,1.0235,1.0235,1.0235,0,0,1.1663,1.1569,1.1504,1.1333,1.1251,1.1135,1.1155,1.1033,1.0946,1.0913,1.0759,1.0689,1.0565,1.0401,1.0324,1.034,1.0087,1.0151,1.0146,1.0135,1.0042,1.0023,1.0006,1.0228,1.0229,1.023,0,0,1.1543,1.1462,1.1343,1.126,1.1135,1.1074,1.1046,1.0915,1.0869,1.0713,1.0685,1.0579,1.0373,1.0286,1.0215,1.0058,1.0042,1.0021,0.9966,0.9873,0.9857,0.9843,0.9787,0.9768,1.0007,1.0007,1.0007,0,1.1517,1.1345,1.1284,1.1162,1.1087,1.1052,1.093,1.0851,1.0693,1.0641,1.0661,1.0402,1.0316,1.013,1.0092,1.0035,0.9999,1.0038,0.9865,0.985,0.9836,0.9781,0.976,1.0005,1.0006,1.0006,1.0006,0,1.1317,1.1198,1.1117,1.0967,1.0882,1.0761,1.0678,1.0599,1.0567,1.0503,1.0343,1.0239,1.0099,1.0052,1.0019,0.986,0.9874,0.988,0.9918,0.9816,0.9764,0.9742,1.0003,1.0004,1.0004,1.0004,0,0,1.1202,1.1018,1.0989,1.092,1.0778,1.0684,1.0559,1.0424,1.0357,1.0248,1.0141,0.9967,0.9971,0.989,0.9847,0.9766,0.9647,0.9781,0.9777,0.9761,0.9465,0.9462,0.9439,0.9636,0.9631,0.9628,0.9475,0,1.1065,1.0845,1.0785,1.0597,1.0485,1.0448,1.0339,1.0239,1.0175,1.0068,0.9996,0.9874,0.989,0.9841,0.9759,0.968,0.9587,0.9689,0.9534,0.9529,0.9567,0.9411,0.9408,0.9269,0.9454,0.9451,0.9448,0,1.0878,1.0767,1.0569,1.0439,1.039,1.0293,1.0164,1.0063,0.9947,0.9905,0.9814,0.9778,0.9644,0.9687,0.9501,0.9572,0.9504,0.9455,0.9448,0.9432,0.9484,0.9392,0.9223,0.9203,0.9415,0.9418,0.942,0,1.0813,1.0613,1.0469,1.041,1.0256,1.0189,1.0121,1.0009,0.9931,0.9816,0.9764,0.9635,0.9564,0.9464,0.9393,0.9432,0.9212,0.925,0.9173,0.9175,0.913,0.9134,0.8949,0.9084,0.9085,0.9085,0.9085,0,1.0668,1.0548,1.0438,1.0349,1.0212,1.0142,1.0008,0.9938,0.9838,0.9733,0.9692,0.9594,0.9505,0.9394,0.9337,0.9191,0.9159,0.9121,0.9107,0.9125,0.913,0.9081,0.9089,0.9079,0.9081,0.9082,0.9083,0,1.0574,1.0495,1.0335,1.0201,1.0165,1.007,0.9954,0.9865,0.9799,0.9666,0.9631,0.9526,0.9393,0.9312,0.9143,0.9105,0.8944,0.8933,0.8984,0.8978,0.8905,0.8914,0.8684,0.865,0.8807,0.8806,0.8804,0,1.0488,1.0395,1.025,1.0178,1.011,0.9993,0.9913,0.9839,0.9757,0.9616,0.9543,0.9408,0.9297,0.9086,0.8994,0.8864,0.8851,0.8778,0.8831,0.8851,0.885,0.8857,0.8847,0.8771,0.8769,0.8768,0.8767,0,1.0342,1.0307,1.0195,1.0067,0.9974,0.9869,0.9765,0.9708,0.9615,0.9524,0.9389,0.9302,0.913,0.8996,0.8858,0.8785,0.876,0.8751,0.8727,0.8745,0.8778,0.876,0.8961,0.8757,0.8758,0.8759,0.8759,0.876,1.0249,1.0164,1.0049,0.9925,0.9838,0.9741,0.9651,0.9573,0.9459,0.9314,0.9276,0.9134,0.9017,0.8829,0.8754,0.864,0.8651,0.8615,0.8606,0.8599,0.8598,0.8795,0.8614,0.8614,0.8615,0.8615,0.8615,0,1.0102,1.0026,0.9912,0.9768,0.9669,0.9654,0.9537,0.9455,0.9331,0.9225,0.9115,0.8958,0.8828,0.8724,0.859,0.8518,0.8503,0.8486,0.8491,0.8474,0.8596,0.8631,0.85,0.85,0.85,0.85,0.85,0.85,1.0015,0.987,0.982,0.9631,0.9554,0.9416,0.935,0.926,0.9175,0.9002,0.8894,0.8827,0.8721,0.8578,0.8457,0.843,0.8382,0.8367,0.8338,0.8453,0.8466,0.8478,0.8511,0.8357,0.8357,0.8226,0.8225,0.8224]}]]